Change the Weather History Date:

Monday, November 21, 2011

  Actual Average Record
Temperature  
Mean Temperature 80 °F -  
Max Temperature 86 °F 83 °F 86 °F (2007)
Min Temperature 75 °F 70 °F 62 °F (2006)
Cooling Degree Days 16    
Growing Degree Days 30 (Base 50)    
Moisture  
Dew Point 75 °F    
Average Humidity 84    
Maximum Humidity 100    
Minimum Humidity 65    
Precipitation  
Precipitation 0.00 in 0.23 in - ()
Sea Level Pressure  
Sea Level Pressure 29.99 in    
Wind  
Wind Speed 4 mph ()    
Max Wind Speed 10 mph    
Max Gust Speed -    
Visibility 7.9 miles    
Events      
Averages and records for this station are not official NWS values.
T = Trace of Precipitation, MM = Missing Value Source: Averaged Metar Reports

Daily Weather History Graph

Daily Weather History Graph

Search for Another Location

Airport or City:

Trip Planner

Search our weather history database for the weather conditions in past years. The results will help you decide how hot, cold, wet, or windy it might be!

Date:

Astronomy

Nov. 21, 2011 Rise Set
Actual Time 6:01 AM CST 5:16 PM CST
Civil Twilight 5:38 AM CST 5:39 PM CST
Nautical Twilight 5:11 AM CST 6:06 PM CST
Astronomical Twilight 4:45 AM CST 6:32 PM CST
Moon 2:09 AM CST (11/21) 2:14 PM CST (11/21)
Length of Visible Light 12h 01m
Length of Day
11h 14m
Waning Crescent, 17% of the Moon is Illuminated
Nov 21
Waning Crescent
Nov 25
New
Dec 2
First Quarter
Dec 10
Full
Dec 17
Last Quarter

Hourly Weather History & Observations

Time (CST) Temp. Heat Index Dew Point Humidity Pressure Visibility Wind Dir Wind Speed Gust Speed Precip Events Conditions
12:00 AM 76 °F - 74 °F 93% 30.03 in 12 mi WNW 3.5 mph - -   Partly Cloudy
12:00 AM 75.2 °F - 75.2 °F 100% 30.01 in 6.2 mi WNW 3.5 mph - N/A   Mostly Cloudy
3:00 AM 75 °F - 74 °F 95% 29.98 in 12 mi Calm Calm - -   Partly Cloudy
3:00 AM 75.2 °F - 73.4 °F 94% 29.98 in 6.2 mi Calm Calm - N/A   Scattered Clouds
6:00 AM 75 °F - 74 °F 95% 30.01 in 12 mi Calm Calm - -   Partly Cloudy
6:00 AM 75.2 °F - 73.4 °F 94% 30.01 in 6.2 mi Calm Calm - N/A   Scattered Clouds
7:00 AM 75.2 °F - 75.2 °F 100% 30.01 in 3.1 mi Calm Calm - N/A   Scattered Clouds
8:00 AM 77.0 °F - 75.2 °F 94% 30.04 in 6.2 mi NW 3.5 mph - N/A   Mostly Cloudy
9:00 AM 80 °F - 77 °F 89% 30.06 in 12 mi West 3.5 mph - -   Mostly Cloudy
9:00 AM 78.8 °F - 77.0 °F 94% 30.05 in 6.2 mi West 3.5 mph - N/A   Mostly Cloudy
10:00 AM 86.0 °F 95.1 °F 75.2 °F 70% 30.05 in 6.2 mi ENE 8.1 mph - N/A   Mostly Cloudy
11:00 AM 86.0 °F 95.1 °F 75.2 °F 70% 30.03 in 6.2 mi ENE 9.2 mph - N/A   Mostly Cloudy
12:00 PM 86 °F - 76 °F 65% 30.01 in 12 mi East 10.4 mph - -   Mostly Cloudy
12:00 PM 86.0 °F 95.1 °F 75.2 °F 70% 30.00 in 6.2 mi East 10.4 mph - N/A   Mostly Cloudy
1:00 PM 86.0 °F 96.9 °F 77.0 °F 74% 29.97 in 6.2 mi East 9.2 mph - N/A   Mostly Cloudy
2:00 PM 86.0 °F 95.1 °F 75.2 °F 70% 29.95 in 6.2 mi East 10.4 mph - N/A   Scattered Clouds
3:00 PM 86 °F - 76 °F 65% 29.94 in 12 mi East 9.2 mph - -   Partly Cloudy
3:00 PM 86.0 °F 95.1 °F 75.2 °F 70% 29.94 in 6.2 mi East 9.2 mph - N/A   Scattered Clouds
4:00 PM 86.0 °F 99.3 °F 78.8 °F 79% 29.93 in 6.2 mi East 8.1 mph - N/A   Scattered Clouds
5:00 PM 82.4 °F 89.5 °F 75.2 °F 79% 29.94 in 6.2 mi East 5.8 mph - N/A   Scattered Clouds
6:00 PM 80 °F - 75 °F 81% 29.96 in 12 mi East 3.5 mph - -  
6:00 PM 80.6 °F 86.2 °F 75.2 °F 84% 29.96 in 6.2 mi East 3.5 mph - N/A   Scattered Clouds
7:00 PM 78.8 °F - 75.2 °F 89% 29.98 in 6.2 mi East 3.5 mph - N/A   Partly Cloudy
9:00 PM 77 °F - 75 °F 92% 30.02 in 12 mi Calm Calm - -   Partly Cloudy
9:00 PM 77.0 °F - 75.2 °F 94% 30.01 in 6.2 mi Calm Calm - N/A   Scattered Clouds